Regional Weather Roundup
Issued by NWS

Home | Current Version | Previous Version | Text Only | Print | Product List | Glossary Off
Versions: 1 2 3 4 5 6 7 8 9 10 11 12 13 14 15 16 17 18 19 20 21 22 23 24 25 26 27 28

000
ASUS45 KCYS 251310
RWRWY

WYOMING REGIONAL WEATHER ROUNDUP
NATIONAL WEATHER SERVICE CHEYENNE WY
700 AM MDT WED MAY 25 2016

NOTE:  "FAIR" INDICATES FEW OR NO CLOUDS BELOW 12,000 FEET
WITH NO SIGNIFICANT WEATHER AND/OR OBSTRUCTIONS TO VISIBILITY.

WYZ001-251400-
YELLOWSTONE NATIONAL PARK

CITY           SKY/WX    TMP DP  RH WIND       PRES   REMARKS
LK YELLOWSTONE   N/A     33  31  92 CALM      30.03R
W YELLOWSTONE  NOT AVBL

$$
WYZ002>013-054>058-071-098>099-251400-
NORTHERN WYOMING

CITY           SKY/WX    TMP DP  RH WIND       PRES   REMARKS
JACKSON        CLOUDY    39  39 100 CALM      30.01R
CODY           FAIR      45  43  93 CALM      29.93S
GREYBULL       CLOUDY    50  45  83 SE3       29.91R
WORLAND        CLOUDY    49  46  90 S6        29.91R
SHERIDAN       CLOUDY    49  46  90 S7        29.91S
BUFFALO        CLOUDY    46  43  89 NW7       29.94S
GILLETTE       CLOUDY    48  47  96 NW7       29.90R
HULETT         CLOUDY    48  46  93 SW5       29.91R
NEWCASTLE      CLOUDY    48  46  93 SE7       29.91R

$$
WYZ014>020-022>026-101>103-251400-
CENTRAL WYOMING

CITY           SKY/WX    TMP DP  RH WIND       PRES   REMARKS
BIG PINEY      CLOUDY    39  37  92 CALM      30.03S
PINEDALE       PTSUNNY   36  36 100 CALM      30.05S
DUBOIS         CLOUDY    37  32  81 W10       29.98R WCI  30
LANDER         PTSUNNY   42  37  82 SE5       29.93R
RIVERTON       FAIR      45  41  86 NW3       29.95R
CASPER         FAIR      46  37  71 SW9       29.93F
DOUGLAS          N/A    N/A N/A N/A MISG      29.94S

$$
WYZ021-027>030-104>119-251400-
SOUTHERN WYOMING

CITY           SKY/WX    TMP DP  RH WIND       PRES   REMARKS
EVANSTON       CLOUDY    38  33  82 S5        30.05R WCI  34
KEMMERER         N/A     34  34 100 CALM      30.05R FOG
FORT BRIDGER   PTSUNNY   41  37  87 SW12      30.08R
ROCK SPRINGS   FAIR      40  35  83 SW6       30.04R
DIXON          FAIR      41  37  87 CALM      30.07R
RAWLINS        FAIR      43  34  70 MISG      30.03R
SARATOGA       FAIR      41  37  87 CALM      30.05R
LARAMIE        FAIR      40  35  83 S9        30.02S WCI  34
CHEYENNE       FAIR      47  36  65 W9        30.01R
TORRINGTON     FAIR      47  45  93 SE5       29.92R
PINE BLUFFS    FAIR      43  43 100 S3        30.00R

$$




USA.gov is the U.S. government's official web portal to all federal, state and local government web resources and services.